Location: Unspecified
(50.1700°N, 6.8600°E)
Time: 14:29:06
(UTC+00:00)

Cosmos 1703 - Pass Details

Date: 24 January 2019
Orbit: 525 x 541 km, 82.5° (Epoch: 18 February)

Event Time Altitude Azimuth Distance (km) Brightness Sun altitude
Exits shadow 05:53:22 22° 291° (WNW) 1,201 4.4 -13.3°
Maximum altitude 05:54:13 24° 271° (W) 1,143 4.3 -13.2°
Drops below altitude 10° 05:57:21 10° 218° (SW) 1,779 5.7 -12.7°
Sets 05:59:47 0° 204° (SSW) 2,667 6.7 -12.3°
